User: anonymous   Login
Location: Unspecified
(0.0000°N, 0.0000°E)
Time: 05:42:54
(UTC+01:00)
Language:

Cosmos 1538 Rocket - Orbit

View from above orbital plane
View from above orbital plane
View from above satellite
View from above satellite

Ground track
Ground track

The orbit data is extracted from the following two-line orbital elements,

1 14760U 84019B   18047.36124467 -.00000063 +00000-0 -12635-4 0  9995
2 14760 074.0419 033.9155 0028395 196.3110 163.7132 14.35837873778621
Epoch (UTC): 16 February 2018 08:40:11
Eccentricity: 0.0028395
inclination: 74.0419°
perigee height: 752 km
apogee height: 792 km
right ascension of ascending node: 33.9155°
argument of perigee: 196.3110°
revolutions per day: 14.35837873
mean anomaly at epoch: 163.7132°
orbit number at epoch: 77862

The dashed part of the orbit path shows where the satellite is in the earth's shadow,  

DLR